Flag for Greece Weather past 2 weeks in Corfu, Greece

Now
59 °F

Clear.


Feels Like: 59 °F
Forecast: 56 / 75 °F
Wind: No wind

Location: Kerkyra Airport

Current Time: May 4, 2015 at 1:59:25 AM

Latest Report: May 4, 2015 at 1:20 AM


Visibility: 10 mi

Pressure: 29.98 "Hg

Humidity: 94%

Dew point: 57 °F

Location of CorfuLocation

Historic Weather in Corfu — Graph

°F

Corfu temperature yesterday

Maximum temperature yesterday: 77 °F (at 2:50 PM)
Minimum temperature yesterday: 54 °F (at 7:20 AM)
Average temperature yesterday: 65 °F

Past Weeks' High & Low Weather Summary

 TemperatureHumidityPressure
High77 °F (May 3, 2:50 PM)100% (Apr 25, 6:50 AM)30.18 "Hg (Apr 25, 6:50 AM)
Low50 °F (Apr 22, 4:50 AM)29% (Apr 22, 1:50 PM)29.74 "Hg (Apr 28, 5:50 AM)
Average62 °F75%29.99 "Hg
* Reported Apr 19 12:20 AM — May 4 12:20 AM, Corfu, Weather by CustomWeather, © 2015

Note: Actual official high and low records may vary slightly from our data, if they occured in-between our weather recording intervals... More about our weather records

Advertising

Corfu weather history for previous 24 hours

 ConditionsComfort  
Time TempWeatherWind HumidityBarometerVisibility
12:20 AM
Mon, May 4
61 °FClear.No wind94%29.98 "Hg10 mi
11:50 PM
Sun, May 3
63 °FClear.2 mph88%29.98 "Hg10 mi
11:20 PM64 °FClear.No wind88%29.98 "Hg10 mi
10:50 PM64 °FClear.3 mph88%29.98 "Hg10 mi
10:20 PM64 °FClear.2 mph88%29.95 "Hg10 mi
9:50 PM64 °FClear.No wind88%29.95 "Hg10 mi
9:20 PM64 °FSunny.5 mph88%29.95 "Hg10 mi
8:50 PM66 °FSunny.5 mph83%29.95 "Hg10 mi
8:20 PM68 °FPassing clouds.No wind73%29.95 "HgN/A
7:50 PM68 °FPassing clouds.No wind73%29.95 "HgN/A
7:20 PM66 °FPassing clouds.5 mph78%29.95 "HgN/A
6:50 PM68 °FPassing clouds.5 mph73%29.95 "HgN/A
6:20 PM70 °FPassing clouds.6 mph69%29.95 "HgN/A
5:50 PM72 °FPassing clouds.8 mph65%29.95 "HgN/A
5:20 PM72 °FPassing clouds.8 mph65%29.95 "HgN/A
4:50 PM73 °FPassing clouds.9 mph61%29.95 "HgN/A
4:20 PM75 °FPassing clouds.12 mph57%29.95 "HgN/A
3:50 PM77 °FPassing clouds.12 mph54%29.95 "HgN/A
3:20 PM77 °FPassing clouds.5 mph54%29.95 "HgN/A
2:50 PM77 °FPassing clouds.5 mph54%29.95 "HgN/A
2:20 PM73 °FSunny.5 mph50%29.98 "Hg10 mi
1:50 PM73 °FSunny.7 mph50%29.98 "Hg10 mi
1:20 PM72 °FSunny.7 mph61%29.98 "Hg10 mi
12:50 PM72 °FSunny.3 mph61%29.98 "Hg10 mi
12:20 PM72 °FSunny.5 mph65%29.98 "Hg10 mi
11:50 AM70 °FPassing clouds.3 mph69%29.98 "HgN/A
11:20 AM66 °FPassing clouds.5 mph73%29.98 "HgN/A
10:50 AM66 °FPassing clouds.3 mph73%29.98 "HgN/A
10:20 AM66 °FPassing clouds.2 mph73%29.98 "HgN/A
9:50 AM64 °FPassing clouds.2 mph78%29.98 "HgN/A
9:20 AM63 °FPassing clouds.No wind88%29.98 "HgN/A
8:50 AM59 °FPassing clouds.No wind94%29.98 "HgN/A
8:20 AM55 °FPassing clouds.No wind100%29.98 "Hg5 mi
7:50 AM54 °FSnow. Fog.No wind100%29.98 "HgN/A
7:20 AM54 °FSnow. Fog.No wind100%29.95 "HgN/A
6:50 AM55 °FPassing clouds.No wind94%29.95 "HgN/A
6:20 AM55 °FPassing clouds.No wind94%29.95 "HgN/A
5:50 AM55 °FPassing clouds.No wind94%29.95 "HgN/A
5:20 AM55 °FPassing clouds.No wind94%29.98 "HgN/A
4:50 AM55 °FPassing clouds.No wind94%29.98 "HgN/A
4:20 AM55 °FPassing clouds.No wind94%29.98 "HgN/A
3:50 AM55 °FPassing clouds.No wind94%29.98 "HgN/A
3:20 AM55 °FPassing clouds.No wind94%29.98 "HgN/A
2:50 AM55 °FPassing clouds.No wind94%29.98 "HgN/A
Weather by CustomWeather, © 2015

See weather overviewHow to use our weather pages